カタログに戻る

SL-14 DEB

運用中PO
NORAD 17274·DEBRIS·🇷🇺 Russia

打ち上げ Dec 18, 1986 から Plesetsk Cosmodrome

Loading…

次のパス (今後24時間)

TLE

最新Source: Space-Track

元期: Sep 14, 2026, 15:26 UTC

1 17274U 86101J   26257.64334304  .00000488  00000-0  34686-3 0  9996
2 17274  82.5275 138.5171 0031519 343.9802  44.5573 13.95540810 11743

AllMySatでSL-14 DEBをリアルタイム追跡

Download on the App Store